SPCWK EPPR-EPPR

Flight info

Callsign SPCWK
Flight time N/A
Altitude 5500
Route EPPR DCT EPPRJ DCT EPBO DCT EPBYM DCT EPBY DCT GRU DCT EPGI DCT EPPRP DCT EPPR
Aircraft C152/L-S/SY/S

Departure

Time 2026-05-01 15:19
Airport Pruszcz Gdański Air Base (EPPR)

Arrival

Time N/A
Airport Pruszcz Gdański Air Base (EPPR)
Time Latitude Longitude Altitude Speed Heading
2026-05-01 15:12 54.25306 18.67292 20 ft 0 kts 211°
2026-05-01 15:16 54.25301 18.67084 20 ft 23 kts 277°
2026-05-01 15:17 54.25337 18.66326 20 ft 39 kts 216°
2026-05-01 15:18 54.25224 18.66476 21 ft 32 kts 101°
2026-05-01 15:18 54.25153 18.67095 39 ft 70 kts 99°
2026-05-01 15:19 54.24769 18.69021 632 ft 72 kts 175°
2026-05-01 15:19 54.23762 18.67962 1002 ft 85 kts 220°
2026-05-01 15:19 54.23323 18.67305 1295 ft 81 kts 226°
2026-05-01 15:20 54.22575 18.65952 1880 ft 78 kts 228°
2026-05-01 15:20 54.22115 18.65366 2114 ft 84 kts 222°
2026-05-01 15:20 54.21644 18.64791 2344 ft 85 kts 224°
2026-05-01 15:21 54.21130 18.64217 2515 ft 92 kts 215°
2026-05-01 15:21 54.20542 18.63698 2670 ft 98 kts 215°
2026-05-01 15:21 54.20019 18.63067 2890 ft 91 kts 219°
2026-05-01 15:21 54.19485 18.62433 3007 ft 94 kts 222°
2026-05-01 15:22 54.18487 18.61182 3460 ft 82 kts 222°
2026-05-01 15:22 54.18024 18.60612 3602 ft 87 kts 223°
2026-05-01 15:22 54.17580 18.60073 3938 ft 68 kts 220°
2026-05-01 15:23 54.17182 18.59643 4158 ft 68 kts 221°
2026-05-01 15:23 54.16781 18.59147 4333 ft 72 kts 228°
2026-05-01 15:23 54.16384 18.58558 4495 ft 79 kts 230°
2026-05-01 15:23 54.15943 18.57910 4604 ft 88 kts 224°
2026-05-01 15:24 54.15460 18.57178 4681 ft 96 kts 226°
2026-05-01 15:24 54.14846 18.56708 4787 ft 103 kts 199°
2026-05-01 15:24 54.14181 18.56289 4942 ft 98 kts 201°
2026-05-01 15:24 54.13643 18.55764 5161 ft 87 kts 224°
2026-05-01 15:25 54.13161 18.55154 5210 ft 92 kts 222°
2026-05-01 15:25 54.12629 18.54489 5221 ft 99 kts 221°
2026-05-01 15:25 54.12061 18.53770 5209 ft 102 kts 221°
2026-05-01 15:25 54.11494 18.53045 5221 ft 103 kts 221°
2026-05-01 15:26 54.10914 18.52313 5202 ft 105 kts 221°
2026-05-01 15:26 54.10329 18.51574 5208 ft 104 kts 222°
2026-05-01 15:26 54.09742 18.50837 5203 ft 104 kts 222°
2026-05-01 15:26 54.09175 18.50119 5204 ft 100 kts 222°
2026-05-01 15:27 54.08618 18.49410 5197 ft 100 kts 222°
2026-05-01 15:27 54.08057 18.48707 5194 ft 100 kts 222°
2026-05-01 15:27 54.07580 18.48108 5200 ft 102 kts 221°
2026-05-01 15:28 54.06440 18.46678 5200 ft 102 kts 221°
2026-05-01 15:28 54.05876 18.45963 5197 ft 102 kts 221°
2026-05-01 15:28 54.05304 18.45244 5193 ft 100 kts 221°
2026-05-01 15:29 54.04181 18.43818 5192 ft 99 kts 221°
2026-05-01 15:29 54.03622 18.43102 5197 ft 103 kts 221°
2026-05-01 15:29 54.02484 18.41643 5193 ft 102 kts 222°
2026-05-01 15:30 54.01332 18.40186 5199 ft 106 kts 222°
2026-05-01 15:31 53.99070 18.37296 5182 ft 97 kts 222°
2026-05-01 15:31 53.97984 18.35930 5188 ft 97 kts 221°
2026-05-01 15:32 53.96886 18.34559 5187 ft 100 kts 222°
2026-05-01 15:32 53.95758 18.33147 5192 ft 98 kts 221°
2026-05-01 15:33 53.94119 18.31118 5190 ft 97 kts 221°
2026-05-01 15:34 53.92482 18.29073 5191 ft 98 kts 220°